User: anonymous   Login
Location: Albany
(35.0000°S, 118.0000°E)
Time: 15:08:33
(UTC-04:00)
Language:

Radarsat Rocket - Orbit

View from above orbital plane
View from above orbital plane
View from above satellite
View from above satellite

Ground track
Ground track

The orbit data is extracted from the following two-line orbital elements,

1 23711U 95059B   15085.86098822 -.00000006  00000-0  77463-4 0  9992
2 23711 100.4816 072.0572 0368175 000.0348 054.8777 13.12664192929085
Epoch (UTC): 26 March 2015 20:39:49
Eccentricity: 0.0368175
inclination: 100.4816°
perigee height: 933 km
apogee height: 1492 km
right ascension of ascending node: 72.0572°
argument of perigee: 0.0348°
revolutions per day: 13.12664192
mean anomaly at epoch: 54.8777°
orbit number at epoch: 92908

The dashed part of the orbit path shows where the satellite is in the earth's shadow,  

DLR